Theta_e
334 330 333 331 330 326 321 319 303 308 305 300 298 300 299 307 308 305 306 307 306 313 314 317 319 316 315 312 311 314 317 312 316 310 312 326 340 340 342 342 344 343 343 346 345 348 348 348 346 344 343 343 342 342 342 341 341 341 341 342 343 345 345 345 346 346 347 347 346 346 346 345 344 344 344 343 343 342 342 341 341 339 339 340 341 340 340 340 340 342 341 342 341 340 341 341 342
332 329 328 327 324 319 312 316 307 302 302 299 300 302 301 306 306 304 303 307 310 311 315 318 319 318 314 314 315 315 316 321 324 324 329 335 338 340 342 342 340 339 343 346 346 347 347 348 346 345 345 343 342 342 341 341 341 340 341 341 342 341 343 347 347 348 347 347 347 346 346 345 343 344 343 342 340 340 340 343 342 341 340 340 340 339 339 338 339 340 339 340 340 341 340 340 340
328 325 324 325 323 318 316 313 301 300 298 295 298 302 305 302 303 306 307 311 313 315 317 318 320 318 315 314 312 312 311 327 328 328 329 337 332 335 341 342 341 341 343 346 346 346 346 347 345 345 342 342 342 341 341 341 340 341 341 341 341 342 343 343 344 345 346 346 344 343 343 343 343 342 342 342 340 338 338 341 341 341 340 339 340 341 340 341 341 340 339 339 340 339 339 339 340
330 328 325 320 314 317 310 307 304 301 298 299 297 302 302 303 305 309 311 312 314 317 317 313 314 319 314 309 312 313 317 322 329 329 328 331 332 338 342 342 343 342 346 347 346 346 347 345 344 344 342 342 341 341 341 341 340 340 340 340 341 347 347 347 347 347 346 344 344 344 343 342 340 341 341 340 339 339 341 342 342 342 341 340 340 338 337 337 338 337 337 338 338 339 338 338 339
330 325 324 318 316 308 310 307 304 303 298 300 298 302 303 305 307 309 311 312 313 315 315 314 313 318 320 314 314 314 321 327 330 331 330 335 338 339 340 342 343 342 344 346 346 345 346 342 345 344 343 342 342 341 341 341 340 340 340 341 342 347 347 347 346 346 345 343 343 341 341 339 339 340 340 340 338 338 338 340 340 340 341 339 338 338 338 338 338 338 338 338 339 339 339 338 338
322 321 325 318 312 316 309 302 301 300 303 304 300 302 304 307 306 310 310 311 312 313 314 314 313 315 313 315 319 321 324 318 329 331 334 335 338 340 340 343 342 341 344 346 347 347 347 341 345 344 344 344 342 341 341 341 340 339 340 339 341 347 346 345 346 345 343 343 342 339 338 338 339 339 339 338 337 337 338 339 340 341 341 341 340 340 341 341 341 341 340 339 340 339 338 338 337
320 319 316 316 315 315 304 301 300 302 302 305 303 303 305 307 309 310 309 309 310 311 313 313 315 311 310 319 319 328 332 332 330 333 338 339 340 341 341 340 342 342 344 345 347 346 347 341 346 345 344 344 342 341 341 341 340 340 339 339 340 341 341 342 343 343 341 341 340 339 337 338 338 338 338 337 337 337 339 340 340 340 340 341 341 341 340 340 339 339 338 339 339 339 339 338 338
324 318 314 308 307 307 302 304 304 304 302 305 304 305 306 308 310 309 307 306 306 307 312 314 314 311 312 319 316 327 330 334 335 338 340 340 340 340 341 340 342 342 344 346 347 347 345 340 346 345 344 343 342 342 342 342 340 340 339 339 339 340 343 343 341 340 340 338 336 336 337 337 336 336 337 337 337 338 338 338 339 342 344 343 342 342 342 341 340 340 340 340 340 339 338 338 338
320 314 320 312 305 307 303 302 303 305 303 305 304 306 310 309 310 308 306 308 309 310 311 313 313 306 312 310 321 327 330 334 336 338 339 340 340 341 339 339 340 342 344 345 347 347 347 339 344 345 344 343 343 343 342 342 341 340 340 339 339 340 343 341 338 339 338 336 339 339 337 336 335 336 336 336 337 337 337 338 339 342 343 342 340 340 340 340 340 339 339 339 338 338 338 338 339
315 314 306 308 309 300 301 302 301 303 303 305 305 305 307 309 309 309 307 305 307 308 310 314 313 308 308 310 318 325 330 334 336 337 338 339 340 340 339 338 342 342 343 344 346 346 346 346 340 342 343 344 343 342 342 342 341 340 340 339 339 340 341 338 337 338 337 339 341 340 338 336 336 335 335 336 336 336 337 337 337 337 341 340 341 341 340 339 339 340 339 338 338 338 338 338 338
308 311 316 306 302 300 299 300 302 303 304 305 305 307 308 309 309 308 307 307 308 308 311 312 307 307 308 313 323 333 335 334 334 333 337 338 340 338 337 339 341 343 343 345 346 347 346 345 341 339 342 342 343 342 342 342 341 341 341 340 339 339 338 338 337 336 340 343 343 342 339 337 335 335 334 335 337 338 338 337 337 338 339 339 340 339 339 339 339 339 339 338 337 338 338 338 338
309 307 310 302 301 301 301 301 302 303 304 304 304 306 308 308 310 307 307 304 306 308 308 310 308 310 307 310 320 331 333 332 334 336 336 338 337 338 337 338 341 342 344 345 346 347 347 346 345 342 337 339 341 343 342 343 342 341 340 340 339 339 339 339 337 336 340 341 343 342 340 338 336 335 335 337 338 337 336 336 336 336 338 339 340 341 340 339 338 337 337 337 336 336 337 337 337
311 311 305 303 302 304 302 301 301 303 302 302 304 306 309 308 307 308 306 307 306 306 307 311 314 311 307 309 325 331 330 333 335 335 337 336 337 337 338 338 339 343 343 345 344 345 347 345 345 342 341 333 334 336 339 340 341 343 342 341 340 340 340 341 344 339 342 342 341 341 340 338 338 335 335 339 338 337 336 337 336 336 340 340 341 339 339 338 338 336 336 336 336 336 336 337 336
310 312 309 303 305 303 301 301 302 300 300 305 307 307 308 307 309 309 308 305 305 305 310 313 312 311 310 313 318 323 330 335 335 337 337 337 337 336 337 338 341 342 345 344 343 344 345 345 345 345 345 344 344 338 332 337 340 342 342 341 342 341 341 340 342 345 343 343 342 341 340 340 338 337 337 338 340 339 339 338 336 337 339 340 339 338 337 337 336 336 335 336 336 336 336 336 335
309 313 309 307 303 302 303 300 300 300 301 305 305 306 306 307 307 308 307 305 306 310 311 315 317 310 306 306 311 319 331 335 335 336 337 338 336 336 337 338 340 342 343 342 342 343 343 345 344 345 342 342 342 341 341 342 333 337 339 339 340 341 339 339 339 339 339 340 339 338 336 333 331 331 333 334 336 336 336 337 339 338 336 337 337 337 337 336 335 335 335 336 336 336 336 335 334
316 310 308 303 300 300 302 302 304 301 302 306 305 307 306 306 307 306 306 307 307 311 310 308 315 311 309 312 322 327 333 334 336 336 336 336 336 336 336 338 338 339 342 342 341 343 343 344 344 344 343 342 343 342 341 342 334 332 335 336 336 337 336 335 333 332 331 332 333 332 330 333 329 332 326 333 331 334 331 333 335 337 336 336 336 336 336 335 335 335 335 335 336 336 335 335 333
315 315 303 302 299 300 301 300 301 298 304 305 306 306 304 303 307 306 306 308 307 307 309 313 311 314 313 321 331 334 334 335 335 335 335 333 333 332 334 335 336 337 339 340 340 341 343 343 343 343 343 342 342 342 342 342 342 330 331 327 330 333 333 331 329 324 323 323 328 326 328 336 334 331 334 333 328 336 325 327 333 337 337 336 336 335 335 335 335 334 334 335 335 333 329 329 329
312 305 303 301 303 300 303 302 303 305 304 304 304 306 306 303 305 306 307 306 307 307 307 312 313 315 323 321 328 336 335 334 334 332 331 331 332 330 330 332 334 334 337 338 339 340 341 342 343 343 343 343 342 342 342 342 344 337 340 341 341 334 328 326 332 337 337 339 327 334 337 335 335 335 331 333 334 334 331 324 328 333 336 334 336 335 334 334 334 334 334 334 333 331 326 333 329
307 305 304 301 304 304 306 305 305 303 304 305 306 307 307 305 306 306 303 303 304 304 306 308 309 314 318 321 329 333 332 333 333 331 330 329 329 328 329 331 332 333 334 336 338 339 340 342 342 341 343 343 343 343 342 342 339 338 340 338 339 333 337 337 338 337 337 337 337 336 334 335 335 334 333 337 335 325 331 323 327 329 332 332 335 336 334 334 334 335 333 332 331 329 332 334 333
308 308 302 304 307 304 306 306 304 306 307 305 305 306 306 306 306 307 304 303 304 302 303 305 307 311 314 321 329 330 332 331 332 331 330 330 330 329 329 330 331 332 333 335 336 339 340 340 341 341 343 342 342 341 343 341 340 339 338 338 338 337 339 337 339 337 338 337 337 336 334 336 335 335 328 328 331 334 330 322 323 325 327 328 329 332 331 333 332 331 329 328 328 329 333 330 330
308 306 303 305 306 304 304 306 305 304 306 305 305 305 304 305 307 305 304 303 302 304 307 306 305 309 315 322 327 329 330 329 331 331 331 330 331 332 331 331 332 334 335 335 336 336 338 339 341 341 343 343 342 341 341 340 340 339 339 337 337 336 337 336 337 337 338 338 337 334 336 335 335 335 332 331 332 332 332 332 332 332 331 333 326 330 330 334 331 331 331 327 331 331 330 331 330
308 304 302 304 305 303 303 304 303 304 303 306 305 302 303 306 305 305 305 302 301 304 307 308 309 309 318 322 327 328 329 329 330 330 331 330 331 331 332 333 335 335 335 333 335 336 338 339 340 341 341 342 342 342 340 340 340 339 338 337 336 337 338 337 336 336 336 337 335 335 335 334 334 334 333 332 333 333 332 331 331 332 331 330 329 330 329 329 328 328 328 329 328 329 329 330 330
302 303 303 303 303 303 303 304 301 303 304 304 303 305 306 304 304 306 305 304 304 307 307 307 308 315 321 326 328 328 329 329 329 330 331 331 331 332 332 333 333 333 334 334 335 336 337 338 340 341 340 341 341 342 341 341 340 340 339 338 337 335 336 336 335 335 335 335 335 336 333 332 332 332 332 332 331 332 331 331 330 330 330 330 328 329 329 329 328 328 328 328 328 329 328 329 329
305 302 303 301 303 302 302 302 301 302 304 304 305 306 304 304 301 304 303 306 306 306 308 306 308 320 321 324 327 327 329 329 329 331 332 332 333 333 334 333 334 335 335 334 335 335 337 337 339 340 340 340 341 341 340 340 340 340 340 339 337 335 335 335 335 336 336 335 335 334 331 333 332 331 332 332 331 331 331 331 331 330 330 329 329 329 329 328 328 328 328 328 328 328 328 329 328
303 301 303 301 302 301 301 302 301 302 302 303 304 303 303 304 303 302 303 306 307 306 308 309 309 317 319 322 323 326 327 329 330 331 333 334 335 335 336 336 336 335 333 334 335 336 337 338 338 338 339 339 340 340 339 340 340 340 340 339 337 334 336 336 336 336 336 335 335 334 332 332 332 332 332 332 331 331 331 331 330 329 329 328 327 326 327 327 326 327 327 327 327 327 327 327 327
305 303 303 302 301 301 301 301 302 302 303 303 303 303 302 302 302 302 305 306 306 306 308 311 311 313 316 319 321 323 325 327 330 330 332 334 335 334 334 334 334 333 334 335 335 336 337 338 338 338 339 339 339 340 340 340 340 339 339 339 339 337 337 337 337 335 335 335 334 334 334 332 332 331 332 331 331 331 331 331 330 329 328 328 326 325 325 325 325 325 326 326 326 326 325 325 325
306 303 303 302 301 301 302 301 301 302 303 302 303 302 301 302 301 300 306 304 304 305 307 311 311 311 313 316 320 322 324 326 328 331 331 332 333 333 333 333 333 333 335 334 335 336 337 337 338 339 339 339 340 339 340 340 340 339 339 339 339 338 338 337 337 336 336 336 335 335 334 332 332 332 331 331 331 331 331 331 329 329 328 328 326 325 326 325 325 325 325 324 324 324 324 325 324
305 303 302 301 301 302 301 302 301 303 301 302 304 302 302 302 301 301 303 303 305 305 306 310 309 310 312 314 318 321 323 326 328 330 329 329 330 331 331 331 333 334 334 334 335 336 337 337 338 339 339 340 339 339 339 339 340 340 340 339 339 339 339 338 336 336 334 336 336 336 335 334 331 332 332 332 331 330 330 330 329 329 328 328 327 326 326 325 324 325 326 326 326 325 324 324 325
304 305 300 300 301 301 302 301 301 302 301 302 304 301 299 300 299 304 302 303 304 305 307 308 309 311 315 316 318 321 322 325 328 328 329 330 331 332 331 333 333 333 335 336 336 336 335 337 337 338 339 340 339 339 339 339 340 340 340 339 339 341 339 338 337 336 336 336 336 336 335 334 333 331 332 332 331 330 330 330 329 329 329 329 328 327 326 325 324 324 325 326 325 324 323 323 325
305 304 302 299 300 299 300 301 301 301 300 301 301 294 298 301 303 303 303 303 303 304 305 307 308 309 312 316 319 321 322 325 327 328 329 330 330 331 331 333 334 334 334 336 336 335 336 336 338 338 339 339 340 339 339 339 339 340 340 340 339 339 339 338 337 337 337 336 336 336 335 335 333 332 331 332 332 329 330 330 329 329 329 329 328 327 325 324 322 322 322 323 320 322 322 322 322
300 301 302 298 296 297 301 302 301 300 301 301 302 295 298 302 303 303 302 303 303 303 304 305 307 309 310 313 315 318 322 324 326 328 329 330 331 332 332 333 334 335 334 335 335 335 335 336 336 336 338 338 339 339 338 339 339 339 340 340 339 339 339 338 337 337 337 336 335 335 334 333 334 333 331 330 330 329 329 329 328 328 329 329 328 326 324 324 323 322 321 321 321 321 321 322 322
302 297 295 299 297 297 299 301 301 299 300 303 300 296 298 300 300 301 303 303 303 303 304 305 305 306 308 310 312 314 317 323 325 326 328 330 331 331 332 333 334 335 334 335 335 336 335 336 336 336 336 336 337 338 339 339 338 339 339 335 340 340 338 338 338 337 337 336 335 334 334 333 333 333 332 331 329 329 328 327 327 328 329 328 327 325 324 323 322 322 322 321 319 320 320 320 321
300 297 296 296 297 297 297 299 301 301 301 300 300 296 299 299 301 301 303 304 303 303 303 304 305 305 306 306 308 310 312 316 322 324 326 329 331 332 334 334 335 336 336 335 335 335 335 335 335 335 335 335 335 336 338 338 338 338 338 339 340 340 339 338 338 338 337 336 335 333 332 332 333 333 333 332 330 329 328 327 328 329 329 328 326 325 324 324 322 321 321 321 321 319 319 319 320
295 299 296 299 295 297 295 298 301 303 301 298 299 297 298 301 302 301 302 304 303 303 303 304 305 305 306 307 306 307 308 311 314 319 323 327 330 332 333 331 334 336 336 336 336 336 335 336 336 335 336 336 336 335 335 336 337 337 338 339 338 339 339 339 338 338 337 337 336 334 334 333 332 333 333 333 331 330 330 329 329 329 329 327 326 325 324 324 323 322 320 321 320 319 318 319 319
293 294 296 296 297 298 297 296 299 299 299 299 299 297 298 301 303 302 303 304 303 303 303 304 305 305 306 306 307 306 307 307 309 312 316 322 326 329 330 331 332 335 335 335 336 336 336 336 336 335 335 336 336 336 335 335 336 336 336 337 338 338 338 339 339 338 337 337 337 336 336 335 334 334 333 333 332 331 329 329 329 329 328 327 326 325 325 324 323 322 321 320 320 320 319 320 319
296 296 296 296 294 294 296 297 298 300 297 296 298 297 298 300 302 303 304 303 303 303 304 304 305 305 306 306 307 307 308 307 310 313 313 316 321 323 326 328 329 331 332 333 333 335 335 336 336 337 335 335 336 335 335 334 334 333 333 334 334 335 337 336 338 338 339 338 337 336 335 335 334 333 334 334 333 331 331 330 329 329 328 327 326 325 325 323 322 321 320 320 320 319 319 319 319
298 297 297 295 295 296 297 297 298 298 298 297 298 299 299 300 302 303 305 305 303 303 303 304 304 305 305 306 307 308 308 309 320 315 313 311 312 312 314 320 325 328 329 330 331 333 334 334 335 335 336 335 334 334 333 333 331 332 332 331 330 332 333 336 336 338 338 338 338 337 336 335 335 334 334 335 333 330 331 331 330 328 328 327 326 325 326 325 323 321 320 319 319 318 317 318 318
298 296 296 295 296 294 296 297 298 299 296 297 299 298 299 300 302 303 304 304 302 303 303 303 304 305 306 307 308 309 309 314 312 311 309 311 310 311 311 311 314 320 324 327 328 329 331 333 333 334 335 335 334 333 334 333 333 332 331 330 330 331 331 332 333 335 337 338 339 338 336 336 335 335 334 334 334 333 331 329 329 327 327 326 325 325 325 320 320 319 319 318 319 318 317 317 314
298 296 296 296 296 296 295 296 297 298 295 296 298 297 298 300 301 303 303 303 304 305 305 305 305 305 306 307 309 309 310 310 310 310 310 309 311 311 310 311 311 313 318 323 326 327 328 330 331 333 333 334 334 333 334 333 334 334 334 333 332 331 334 334 334 335 337 337 337 337 337 337 336 336 335 333 332 332 330 327 326 326 325 323 321 321 322 322 322 320 319 318 317 317 317 316 313
296 296 294 293 297 294 291 295 297 296 296 296 297 296 298 300 302 302 304 304 305 306 304 305 305 305 306 307 307 308 308 308 308 309 308 308 310 310 308 309 310 311 313 318 322 325 327 328 329 331 332 333 333 333 332 335 335 335 335 334 334 333 332 334 334 335 336 336 335 337 338 337 336 335 335 334 332 332 331 330 329 328 327 325 323 322 322 322 322 321 320 318 318 314 312 313 314
299 298 296 294 294 295 298 294 296 296 296 295 296 295 295 298 297 299 302 300 300 302 301 301 302 304 305 306 304 304 303 304 306 307 308 308 307 307 309 309 309 310 311 313 317 321 323 326 328 329 330 331 333 333 332 333 333 333 332 333 334 333 334 334 334 333 334 334 334 334 335 338 338 338 338 336 333 332 332 331 330 330 329 328 326 324 323 323 323 322 321 318 316 314 314 314 314
296 300 298 297 297 295 296 295 294 293 293 296 295 289 290 297 298 298 301 299 299 300 300 301 302 303 304 303 305 308 308 307 307 307 307 308 307 307 308 309 309 309 309 311 313 316 320 322 325 327 328 329 331 332 332 331 330 329 329 327 327 327 326 328 326 326 328 331 332 334 334 334 335 337 338 336 335 331 331 331 331 330 329 329 326 324 323 323 322 321 321 318 317 317 316 316 314
293 293 299 297 297 297 296 295 295 290 288 293 294 289 287 296 297 298 298 298 299 299 300 301 303 304 305 307 308 308 309 309 309 306 305 304 306 308 310 310 310 310 309 311 312 313 314 317 321 324 326 327 329 330 331 329 328 328 328 328 328 326 325 327 329 330 329 329 331 331 333 335 337 337 336 336 335 333 331 330 330 329 328 327 325 323 322 321 320 321 321 320 318 317 316 313 314
293 296 298 298 297 296 296 296 296 295 295 294 293 295 289 290 296 299 298 297 298 298 300 302 303 304 304 305 306 307 309 307 309 310 309 310 311 311 310 312 311 311 312 309 309 310 312 314 318 321 323 324 327 328 329 328 326 326 327 327 327 326 326 326 328 328 329 329 329 330 331 331 332 334 334 335 335 335 334 332 331 330 328 328 326 325 323 323 322 323 323 321 319 317 316 313 313
295 295 300 297 297 297 298 296 295 296 295 290 292 297 288 288 295 297 297 295 296 297 299 302 303 303 304 305 306 307 306 307 308 311 310 310 310 310 310 310 310 310 311 311 311 312 314 315 318 319 320 322 326 326 327 327 326 326 326 326 325 326 327 327 327 328 328 329 328 329 329 329 330 331 332 333 333 333 334 332 331 331 331 330 327 326 325 324 323 322 321 319 318 316 316 316 314
293 297 300 300 302 300 299 296 296 294 290 286 292 294 287 288 296 296 297 296 296 297 300 301 302 303 304 304 305 305 306 307 307 307 309 309 309 309 309 310 311 312 312 313 313 315 317 318 319 319 321 323 324 325 325 325 325 325 325 325 325 325 325 326 327 326 327 328 327 327 327 327 327 328 329 330 331 332 332 332 332 331 330 329 323 326 325 323 322 322 321 320 319 317 317 316 315
298 300 298 297 298 297 296 297 294 291 285 287 290 290 291 285 294 296 295 296 297 299 300 301 301 302 303 304 305 306 306 307 308 308 308 308 309 310 311 310 311 313 316 317 317 317 318 319 320 321 322 322 323 324 324 324 324 324 324 324 324 324 325 324 324 324 324 325 323 323 324 325 325 325 326 326 328 328 329 330 330 330 331 330 327 327 326 325 324 323 322 321 319 317 317 316 314
301 298 295 295 293 295 293 291 292 286 284 287 288 290 291 284 290 297 297 296 298 300 299 299 300 301 302 303 304 304 305 306 307 308 308 308 309 310 311 311 312 313 315 317 318 319 318 319 320 317 317 318 320 321 322 323 323 323 324 324 324 324 324 323 323 322 322 322 322 322 323 323 323 324 324 324 325 326 327 328 328 328 328 329 328 329 329 327 325 324 322 321 320 320 318 317 317
298 297 295 289 286 287 284 287 283 284 284 286 288 290 287 287 293 296 296 297 297 301 301 301 301 301 302 303 304 305 306 307 308 308 309 310 310 310 310 311 312 312 313 314 316 319 320 320 320 318 317 318 318 319 321 322 322 322 323 323 324 323 323 323 323 322 322 321 321 321 321 320 321 321 321 321 322 323 323 323 324 324 325 326 326 327 328 328 329 328 325 323 322 321 319 317 315
296 293 291 287 284 282 281 284 286 286 284 286 287 290 285 292 294 298 298 298 300 300 300 301 302 302 302 303 304 305 307 308 309 309 310 310 310 310 310 310 311 311 311 312 313 313 315 318 319 318 318 319 318 318 318 318 319 320 321 321 321 321 321 321 321 320 321 321 321 320 319 319 319 319 319 320 321 322 322 322 323 324 324 325 325 326 326 327 326 326 325 323 322 321 319 318 316
295 299 294 290 288 284 280 284 281 282 285 284 288 285 286 286 290 295 296 298 298 297 298 299 300 302 302 303 304 305 306 307 309 309 309 308 309 309 309 309 309 310 311 312 312 314 314 314 314 312 311 313 316 316 316 316 317 317 317 318 318 319 318 318 318 319 318 318 319 318 318 318 318 318 318 319 320 321 321 321 321 321 321 322 322 323 324 324 324 324 321 321 320 321 319 317 316
298 298 299 292 290 294 286 286 286 285 284 283 283 285 291 293 296 297 297 297 297 297 297 298 299 300 302 302 303 304 304 306 307 306 306 307 308 308 308 308 308 308 309 309 310 312 312 311 311 311 311 311 312 313 314 314 315 315 316 316 316 316 316 316 316 317 316 316 316 316 316 317 317 317 318 318 318 318 318 318 319 319 320 320 320 320 320 320 321 321 321 321 321 322 319 317 317
294 294 289 292 296 292 285 284 285 283 285 284 289 288 292 296 297 298 296 295 296 296 296 297 299 301 303 303 304 304 305 305 306 306 306 306 306 306 307 307 307 307 306 306 307 308 309 309 309 308 308 308 309 309 310 311 311 312 312 312 312 313 314 314 314 315 315 316 316 315 315 316 316 316 316 316 316 316 316 316 316 316 317 318 318 318 318 319 319 319 318 319 318 319 318 318 318
295 287 293 296 298 296 290 284 284 284 282 284 288 285 288 288 286 296 295 294 295 295 296 297 299 301 302 303 304 304 305 306 306 306 306 306 306 305 305 305 305 305 305 305 305 306 307 308 308 307 307 306 307 307 307 308 309 310 310 310 310 310 311 311 312 312 313 312 313 314 314 314 314 315 315 315 314 313 313 311 313 313 314 315 315 316 316 317 317 316 316 316 316 317 316 316 316
295 293 303 292 286 285 288 287 280 280 280 283 285 287 288 290 291 292 293 294 294 295 297 297 298 300 302 303 304 305 305 304 304 305 305 305 304 304 304 304 304 304 305 305 306 306 306 306 306 306 305 305 306 307 307 307 307 308 308 308 308 308 309 310 310 310 311 311 311 312 312 312 313 313 313 313 313 312 312 312 312 311 312 312 312 312 313 313 314 313 313 313 314 315 314 313 314
297 296 293 295 292 289 286 286 287 286 282 282 283 284 284 293 293 295 294 296 296 296 296 297 299 300 302 302 303 303 303 305 305 305 305 304 304 303 304 304 304 304 304 305 305 305 305 305 305 305 305 305 305 305 306 306 306 307 307 308 307 308 308 308 308 309 309 309 310 309 309 310 310 310 310 310 310 310 310 310 310 310 310 311 310 310 310 310 310 310 310 310 311 311 310 309 310
289 291 289 292 294 294 292 294 287 285 284 284 283 282 287 294 297 296 296 297 298 297 296 298 299 301 303 303 303 303 305 305 305 304 304 303 303 302 303 303 303 304 304 305 305 304 304 304 304 304 304 304 303 304 305 305 305 305 305 305 305 306 306 307 307 307 307 307 307 307 307 307 306 307 308 308 308 308 308 308 308 308 308 308 309 309 309 309 308 307 308 308 308 308 307 307 307
293 291 289 291 289 286 284 283 291 285 285 283 283 282 289 295 294 298 297 298 299 299 299 299 300 302 302 303 303 305 305 305 304 304 303 303 302 302 303 303 304 304 303 303 304 303 303 303 303 303 303 303 302 302 303 304 304 304 303 303 303 303 304 305 305 305 304 304 304 305 304 305 305 306 306 306 306 306 306 306 306 306 306 306 307 307 307 307 306 306 305 306 306 305 305 305 305
Wind_Speed
7 6 5 6 4 3 5 5 5 4 5 2 4 4 6 4 3 6 6 6 6 6 4 2 5 4 4 6 6 6 10 8 6 6 4 5 7 10 9 11 12 12 11 9 9 8 9 8 9 9 9 9 8 8 8 7 8 7 7 9 9 11 10 11 12 12 12 13 12 13 13 12 12 12 13 13 13 13 14 14 14 13 14 15 14 15 15 15 15 16 16 15 15 14 15 16 15
6 4 4 3 3 2 4 1 5 4 4 3 3 1 8 7 5 5 7 3 6 7 5 3 4 2 2 6 4 2 8 9 8 9 8 9 11 8 10 12 12 12 10 9 8 8 9 9 8 9 9 9 8 7 8 7 7 8 7 8 9 8 11 13 12 12 12 13 13 13 13 11 11 12 13 13 12 12 13 15 14 13 14 14 15 14 14 14 14 14 14 15 15 14 14 14 14
4 5 4 4 4 6 1 4 5 4 4 5 6 4 7 6 5 5 7 8 8 9 5 5 2 3 4 4 3 7 6 6 7 11 9 12 11 7 10 11 11 11 11 8 8 7 7 8 7 9 10 9 8 7 7 7 7 7 7 8 9 9 9 9 10 11 12 13 13 12 12 11 10 10 11 12 13 11 11 13 12 13 13 13 13 13 14 14 14 14 14 14 14 14 14 14 14
8 3 4 3 4 3 6 4 6 4 5 4 6 6 6 5 5 10 9 9 8 7 5 5 5 3 4 1 7 1 7 5 7 9 8 9 6 10 11 11 11 10 9 7 8 8 8 8 7 10 10 10 9 7 7 7 7 8 9 8 10 13 12 11 12 13 13 13 13 13 12 11 10 10 11 12 11 11 13 13 13 13 14 13 14 13 12 13 13 12 12 13 13 13 13 13 13
7 3 3 4 5 6 5 3 4 3 3 4 5 8 7 5 9 9 9 7 6 4 6 4 3 3 2 4 3 3 6 8 5 5 7 8 12 11 12 12 10 10 9 8 9 8 10 10 8 9 9 9 9 8 7 7 6 7 6 7 9 12 12 12 12 12 11 12 13 12 11 10 8 9 11 11 11 11 11 11 11 12 12 12 12 13 13 13 13 13 13 13 13 13 12 12 12
4 3 2 4 3 4 3 3 5 6 6 6 4 7 7 6 9 9 9 7 6 3 1 6 4 4 4 2 3 3 2 3 6 6 7 9 12 13 12 10 9 9 9 8 8 8 10 9 7 8 9 10 9 8 7 6 7 7 7 7 9 11 12 13 12 12 12 13 12 12 11 8 9 9 11 11 9 11 11 11 12 12 11 11 12 13 13 13 13 13 13 12 12 12 12 11 12
2 3 2 4 3 3 5 6 5 3 6 4 6 6 7 8 9 11 10 8 3 3 2 3 2 1 4 5 4 5 6 3 5 6 5 11 12 13 12 10 9 10 10 8 8 10 11 8 8 10 9 9 8 7 7 7 6 6 7 7 8 9 9 11 11 11 10 11 11 11 11 10 11 10 10 9 11 10 10 10 10 9 11 12 11 11 13 13 12 12 12 12 12 12 11 12 12
1 4 4 6 4 4 6 3 1 2 5 5 4 4 8 8 10 9 10 7 7 5 6 2 2 6 6 2 1 5 5 3 6 7 12 11 12 12 11 10 10 10 10 9 8 10 10 7 8 9 9 10 8 7 8 7 6 6 7 7 6 9 11 11 9 8 10 10 8 10 10 9 10 10 9 9 11 11 9 9 9 12 13 12 11 11 12 13 13 12 12 12 12 11 11 11 11
3 5 1 5 5 3 4 5 2 4 5 4 5 4 4 8 8 8 8 4 9 2 8 6 2 5 6 5 5 6 6 5 3 9 10 12 12 12 8 11 10 9 9 9 10 10 10 6 8 9 9 9 8 8 8 7 6 6 6 7 6 9 11 9 9 12 10 9 11 12 11 9 8 8 9 10 11 10 10 9 9 11 11 11 11 12 12 12 12 11 11 11 11 10 10 11 11
4 4 5 5 3 7 6 4 4 4 4 5 4 7 6 7 6 7 8 6 6 6 5 4 2 4 1 3 6 7 5 6 7 9 10 11 11 10 9 10 12 10 9 8 9 10 9 8 8 8 8 8 8 7 8 7 7 6 6 6 6 9 9 9 9 9 8 10 11 12 10 9 8 7 8 10 9 10 10 8 7 9 12 11 12 11 11 11 11 11 11 11 10 10 10 10 10
5 5 4 6 5 6 6 5 4 5 5 5 5 6 6 6 6 7 6 6 6 5 6 4 4 6 3 3 6 5 8 7 9 10 10 10 10 9 10 8 11 10 9 8 9 10 10 10 9 9 8 8 7 7 7 7 7 7 6 5 6 7 8 8 9 8 11 12 12 10 10 9 7 7 6 7 11 11 9 8 8 9 10 10 10 11 11 11 10 11 10 9 9 10 10 10 10
4 6 5 7 6 6 6 2 5 6 5 5 6 7 4 7 5 7 7 8 6 5 6 9 1 3 2 3 5 7 8 8 9 9 10 9 9 8 9 7 9 9 9 8 9 10 11 10 9 8 9 9 8 7 6 5 6 6 6 6 6 6 7 7 8 7 11 11 11 10 10 9 7 7 8 8 11 10 10 8 7 7 8 9 10 11 11 11 10 10 10 9 8 8 9 9 9
5 5 7 7 3 5 7 1 4 5 5 6 8 6 6 8 7 7 6 6 7 6 6 8 3 4 3 3 6 9 9 9 10 11 10 9 9 8 8 8 9 9 8 8 8 9 11 10 9 9 8 9 8 8 6 5 4 4 6 6 4 5 7 8 7 9 11 11 10 10 10 8 6 7 8 9 7 9 10 9 7 7 10 10 10 10 11 11 11 9 8 8 8 8 8 8 9
5 4 4 6 2 2 3 1 5 5 5 8 6 9 8 7 5 4 6 6 7 4 7 5 2 2 1 4 6 7 8 9 12 11 9 9 8 7 8 8 8 9 8 9 8 9 9 9 9 9 10 8 8 7 6 6 5 4 5 5 4 5 8 8 7 8 9 9 10 9 8 6 6 9 11 10 9 9 8 9 8 8 10 10 10 11 11 10 9 8 7 7 7 7 8 7 7
4 2 4 0 3 3 2 4 6 7 6 9 7 11 9 0 0 2 6 5 7 7 4 2 3 3 4 5 7 8 12 12 12 11 10 8 8 8 7 7 7 8 8 8 9 8 9 8 9 9 9 8 8 6 6 6 6 5 5 5 5 7 7 7 7 8 10 10 10 9 8 7 7 9 9 9 7 8 9 8 7 6 8 9 9 9 9 9 9 7 7 6 7 7 8 7 6
4 3 4 4 5 6 5 4 1 6 6 9 9 9 8 5 1 4 4 7 6 3 5 4 2 2 3 5 8 12 17 14 12 11 10 9 9 8 8 8 8 8 8 8 9 8 8 8 7 8 8 8 7 6 7 8 6 7 6 6 6 7 7 8 8 8 9 10 10 9 9 7 5 7 10 8 8 8 7 7 7 8 8 7 7 8 8 8 7 6 6 6 6 7 8 7 6
3 5 5 5 6 7 6 5 7 5 9 9 9 11 9 7 4 1 2 3 5 6 4 4 3 1 5 7 7 14 15 14 13 13 11 9 8 8 7 6 7 8 7 9 8 8 8 8 8 7 8 8 7 6 6 7 7 8 6 6 8 7 8 8 8 8 7 8 9 9 9 6 5 5 6 7 7 6 7 8 8 7 8 8 8 7 8 6 6 6 5 6 7 8 8 7 6
4 7 7 7 4 9 7 6 6 6 8 10 10 11 8 9 7 4 3 3 2 7 5 5 3 3 7 5 2 11 13 14 14 15 12 10 9 9 9 8 8 8 8 8 9 9 8 8 8 8 7 8 7 6 4 5 6 6 7 6 5 6 6 7 6 6 7 6 7 8 5 4 4 4 5 7 6 7 6 7 8 7 7 7 7 6 6 6 5 5 5 6 6 6 8 5 4
7 7 7 7 6 3 2 4 6 2 8 11 11 10 6 7 11 7 7 7 7 7 6 7 6 7 7 6 8 11 12 13 14 14 15 14 11 11 10 9 10 9 9 8 9 10 9 8 9 9 8 8 7 7 5 5 7 5 6 6 5 6 6 6 6 6 6 6 7 5 3 3 3 3 4 5 5 8 8 7 8 7 7 8 8 6 4 5 6 6 6 4 4 4 5 3 3
4 5 7 3 6 6 6 4 6 5 6 11 11 9 3 7 7 8 6 8 7 7 8 8 8 10 9 9 11 12 12 13 13 14 15 14 12 11 10 10 10 10 10 9 9 8 9 8 9 8 8 8 7 6 5 5 6 6 6 5 5 5 6 6 6 6 5 6 5 4 3 4 3 4 8 9 7 5 5 7 7 8 7 7 9 6 8 8 9 8 6 3 3 4 5 2 3
4 5 4 3 5 7 4 5 6 5 4 10 9 8 5 6 5 8 4 6 7 5 6 8 10 10 12 12 13 11 12 13 13 13 14 14 13 10 9 9 8 8 8 8 7 8 9 9 9 8 8 8 8 6 6 5 5 5 5 6 5 5 5 5 5 6 5 5 5 4 2 4 3 4 5 4 4 5 5 4 5 4 4 4 5 3 4 4 4 4 3 3 5 5 2 2 1
5 1 3 1 1 5 5 5 5 4 6 6 8 10 7 6 4 7 7 8 4 3 4 2 3 8 15 14 14 13 14 14 14 14 15 15 15 12 10 9 8 8 8 8 9 9 9 9 9 8 9 9 9 7 7 6 6 6 6 6 6 6 5 5 5 5 5 5 5 3 4 4 3 3 4 4 3 4 4 4 4 3 3 3 4 2 3 3 3 2 3 4 3 2 2 2 3
8 3 2 5 5 4 3 4 3 2 4 6 9 6 7 8 5 7 5 8 6 6 8 7 4 4 13 13 14 13 14 15 15 15 15 15 14 13 11 9 9 8 8 8 9 9 9 10 10 8 9 8 10 8 7 6 7 6 5 6 6 6 5 5 5 4 4 5 5 4 4 4 4 3 4 4 3 3 3 3 3 3 3 3 4 3 2 2 2 2 3 3 2 2 1 2 2
6 5 5 6 5 6 3 5 3 2 2 5 3 5 6 8 7 3 6 4 8 6 7 5 4 4 11 14 15 15 15 16 16 15 14 14 14 14 11 10 9 8 8 9 9 9 9 11 10 10 9 9 9 9 8 7 7 7 6 4 5 6 5 6 5 4 4 4 5 5 5 4 4 4 4 4 4 3 3 3 3 3 3 3 3 3 3 3 3 3 3 3 2 2 3 3 3
6 6 5 5 5 4 4 4 3 2 3 3 3 6 2 2 1 1 6 7 7 6 4 5 5 6 8 11 13 13 14 13 13 13 11 10 11 11 10 8 9 9 9 9 9 9 10 10 11 11 10 11 9 9 9 7 7 7 7 6 6 6 6 5 6 5 4 4 5 5 5 4 4 4 4 4 4 4 3 3 3 3 3 3 3 3 3 3 4 3 3 3 3 4 3 4 4
7 8 8 7 6 6 5 5 4 3 3 4 7 5 3 2 2 5 6 4 5 4 3 4 4 6 8 9 11 12 13 14 13 13 13 11 10 12 13 10 9 10 10 10 10 9 9 11 11 12 11 10 9 9 8 8 7 7 7 7 6 6 6 6 6 6 6 6 4 5 5 5 4 4 4 4 4 4 4 4 3 3 3 3 3 3 3 4 4 4 4 4 4 4 4 4 3
11 10 9 9 7 6 1 4 5 3 4 3 5 5 3 2 2 4 4 4 2 4 5 4 5 6 7 7 9 10 11 13 14 12 11 11 10 11 12 11 11 10 10 11 10 9 8 10 10 11 11 9 8 9 8 8 8 7 7 7 7 6 6 6 6 6 6 6 6 5 5 6 4 4 4 5 4 4 4 4 4 4 4 4 4 4 3 4 3 4 4 4 4 4 4 4 4
13 14 12 9 6 6 6 7 6 5 4 2 2 5 3 4 2 2 5 4 1 4 6 5 6 7 7 8 8 9 9 9 10 11 13 14 10 11 12 11 12 11 10 11 10 10 10 11 11 11 11 10 9 10 8 8 8 9 8 7 7 8 7 6 6 6 6 7 6 6 6 5 6 5 5 4 5 5 5 4 4 4 4 4 4 4 4 4 4 4 4 4 4 4 4 4 4
12 15 9 8 9 6 3 5 5 3 4 2 2 4 6 7 8 6 6 3 2 2 4 5 6 6 5 7 7 7 8 8 9 10 12 12 11 10 12 12 12 12 9 10 10 10 11 11 10 11 11 11 11 11 9 9 8 9 8 8 8 6 7 7 7 7 7 7 6 7 7 8 6 6 5 5 5 4 4 5 5 5 4 4 4 4 4 4 4 4 4 4 4 4 5 5 4
8 8 8 9 7 6 5 4 3 2 3 1 2 5 8 14 10 9 6 4 3 3 5 5 5 6 6 6 6 6 7 9 10 11 10 11 11 11 12 12 12 11 9 8 10 11 9 8 9 10 11 12 12 11 10 9 9 8 8 8 7 7 7 7 6 6 5 7 7 6 7 8 7 6 5 5 5 5 5 5 5 5 5 5 5 5 5 5 5 5 5 5 6 6 6 6 6
10 5 6 7 8 7 7 4 5 5 3 3 3 6 1 8 9 6 4 4 5 6 6 6 5 6 6 6 6 6 8 9 11 11 11 11 10 9 11 11 13 12 9 10 12 12 12 9 9 9 10 13 11 12 11 10 10 9 8 8 8 8 7 7 7 7 7 6 6 5 7 9 9 8 6 5 6 6 5 5 6 5 5 5 5 5 5 5 5 6 5 6 6 6 6 6 7
7 9 9 7 9 6 7 3 4 5 4 5 5 6 9 6 7 6 3 5 5 6 6 6 5 5 6 6 7 7 7 8 10 10 11 11 10 9 11 12 12 13 12 11 11 12 12 12 10 10 11 13 13 13 12 12 11 9 8 8 8 9 8 8 7 8 6 5 6 5 6 7 8 9 9 6 5 6 6 6 6 6 6 5 5 6 6 6 6 6 6 6 6 7 7 7 6
9 10 8 9 8 7 7 4 2 2 7 6 9 5 2 6 5 5 4 5 6 5 7 6 7 6 6 6 6 7 7 8 8 10 11 10 10 9 9 10 10 12 11 11 12 12 12 13 11 12 12 12 13 13 12 11 10 10 10 9 8 8 8 9 8 7 6 7 6 6 7 8 9 10 10 9 7 7 6 6 6 7 7 6 6 6 6 6 6 6 7 7 7 6 7 8 7
9 8 8 9 13 8 6 5 3 3 5 8 8 7 11 2 8 6 6 4 5 4 4 6 7 6 6 5 6 7 8 8 9 10 12 11 9 10 8 8 9 10 11 11 11 12 12 12 12 11 10 11 10 10 11 10 10 10 9 9 8 9 10 8 8 9 8 7 7 7 8 8 8 9 10 9 8 7 7 7 6 7 7 7 7 7 7 7 7 7 8 8 8 7 7 7 7
11 9 6 6 7 10 7 8 8 7 5 6 9 12 12 10 6 8 8 7 4 4 3 3 4 6 6 6 7 8 8 9 8 8 10 12 11 9 8 8 9 9 8 11 10 10 10 10 10 11 11 10 10 10 9 10 10 10 9 10 9 10 9 9 9 9 9 9 10 10 9 8 9 9 9 9 9 8 8 7 8 8 7 7 7 7 7 8 8 8 8 7 7 8 7 7 6
12 14 9 8 10 10 7 6 4 6 9 7 11 10 11 12 13 9 8 9 7 5 4 5 6 6 7 7 7 7 7 8 7 4 6 6 7 7 8 8 8 9 9 10 11 11 11 11 10 10 11 11 10 9 8 9 8 9 9 9 9 10 9 9 9 9 10 9 8 8 8 8 9 8 9 9 9 8 8 8 8 8 8 7 8 8 8 8 9 9 9 9 8 7 7 6 5
12 11 7 6 8 6 7 7 4 1 3 11 12 12 12 12 9 8 7 7 7 7 8 8 8 8 8 8 8 8 8 7 6 6 4 5 5 5 5 6 8 9 10 11 11 12 12 11 11 12 11 11 10 9 9 9 10 9 9 10 10 9 9 10 10 10 9 9 8 10 10 8 6 5 7 9 8 8 8 7 7 7 7 8 8 9 9 9 7 6 5 5 8 8 6 6 4
13 11 11 6 8 5 4 5 4 1 3 6 8 9 12 12 11 12 10 9 10 10 10 10 10 10 9 9 9 8 7 3 4 4 6 7 6 7 6 6 7 10 10 11 12 13 12 12 12 11 9 10 11 10 9 9 9 8 8 8 8 8 8 8 9 9 9 9 8 8 7 8 9 10 8 7 7 7 9 8 6 7 7 6 5 5 5 3 2 5 5 6 6 8 7 6 4
8 9 9 7 6 7 4 6 3 3 1 6 4 8 10 11 11 11 11 11 9 10 9 8 7 10 9 7 6 6 5 4 4 5 6 7 8 8 7 6 7 9 9 11 11 11 12 12 11 11 10 10 10 10 9 9 8 8 8 6 7 6 7 7 7 7 7 8 10 11 12 12 11 11 12 8 8 7 7 6 6 5 6 5 5 7 8 9 9 9 8 7 5 6 6 3 6
6 7 8 8 8 8 4 4 5 1 2 2 4 6 9 10 11 13 12 11 5 3 2 2 3 5 7 6 2 3 4 3 4 5 6 7 7 7 7 7 7 7 7 8 10 11 10 10 10 10 10 10 9 9 9 8 7 7 7 7 6 6 5 6 7 7 7 9 10 10 10 9 10 10 12 12 10 11 12 12 10 9 9 9 9 9 10 10 10 9 9 9 8 6 5 7 8
4 6 7 7 9 6 3 6 5 4 2 1 6 7 9 9 11 10 6 4 1 5 4 5 6 6 5 4 4 6 8 7 6 5 5 5 6 7 7 7 6 7 7 7 8 9 7 10 9 9 8 9 8 8 9 8 6 6 6 6 6 7 6 5 6 7 7 6 7 9 10 10 10 8 6 6 8 10 10 10 10 9 9 9 9 10 9 10 10 10 9 8 9 8 7 6 7
4 3 4 5 10 9 9 11 8 4 4 4 2 3 7 9 13 12 5 4 6 6 6 7 6 5 5 6 6 4 5 5 6 6 5 4 5 4 4 5 5 5 6 6 6 7 6 6 7 8 7 7 7 8 8 8 7 7 7 8 8 8 8 8 9 9 8 8 7 7 9 9 10 9 8 8 7 5 5 5 7 5 5 3 5 5 5 4 5 7 7 7 10 10 10 8 6
7 6 3 4 8 10 10 10 6 4 4 4 1 7 3 5 6 8 5 4 6 5 6 6 5 4 5 4 3 3 3 4 4 5 5 5 6 5 5 6 6 6 5 4 4 4 5 5 6 7 7 6 6 7 8 7 7 7 8 8 7 7 8 6 6 5 5 6 6 8 8 8 9 9 10 10 9 8 8 8 8 9 8 8 6 6 7 7 7 7 7 8 8 7 7 9 10
6 3 1 5 8 10 9 10 7 2 5 5 2 4 5 4 3 7 6 6 6 6 6 6 5 4 3 2 2 1 1 2 2 3 3 3 3 4 5 4 4 3 4 3 3 4 5 6 5 6 5 5 6 6 8 7 7 7 8 8 7 7 7 7 6 6 6 6 6 6 6 6 6 7 8 8 9 10 9 10 10 9 8 8 8 9 9 9 9 9 10 10 9 8 9 10 11
2 1 2 6 7 8 9 7 3 2 2 3 5 3 3 6 4 4 5 5 8 9 8 6 5 3 2 2 1 1 1 1 1 2 2 3 3 3 2 3 3 3 3 4 4 4 5 5 5 6 6 6 6 7 7 8 7 6 7 7 7 6 6 6 5 5 5 5 6 6 6 6 6 6 6 7 8 9 6 6 6 6 8 9 9 8 8 8 9 7 5 6 7 7 9 10 8
2 3 5 8 7 7 7 4 3 2 3 5 7 5 4 7 4 6 4 5 8 9 8 6 4 3 2 1 2 2 2 2 1 1 2 3 3 4 4 4 5 4 3 4 4 4 4 4 6 7 6 5 5 7 6 7 7 5 6 6 6 6 5 5 5 5 3 3 5 6 6 6 6 6 6 7 7 8 9 8 6 8 7 6 5 5 5 6 7 7 9 8 9 11 8 9 10
11 7 11 8 6 5 3 1 3 3 4 4 4 0 3 4 4 7 7 4 3 7 6 5 4 4 3 3 2 2 2 3 2 3 4 4 4 5 4 6 6 5 4 5 5 5 4 5 6 7 6 5 5 6 5 6 6 6 5 5 5 5 5 5 5 5 4 4 6 7 6 7 7 6 6 6 7 8 9 8 8 7 6 7 7 6 8 8 8 9 10 11 11 11 9 11 11
8 5 8 9 5 4 4 3 2 4 5 3 3 1 2 6 3 2 4 2 2 3 7 8 7 6 4 3 3 3 3 3 4 5 6 6 6 6 6 7 7 6 6 6 5 5 5 5 6 7 6 6 5 5 5 5 5 5 5 5 5 5 5 5 6 6 5 6 6 6 6 6 6 6 7 7 6 7 6 7 8 8 8 8 9 8 7 7 7 7 7 8 9 11 10 11 10
2 9 10 7 5 3 5 4 6 7 4 2 2 1 2 11 10 2 1 2 3 1 5 7 8 7 6 5 4 4 3 4 5 5 5 6 6 7 7 8 7 7 6 6 6 6 6 6 7 7 7 6 6 6 7 7 6 6 5 5 5 4 4 5 5 5 5 5 5 5 6 5 5 5 5 6 7 8 7 8 8 7 7 8 8 8 8 8 7 6 7 8 9 9 8 9 9
8 11 10 8 7 6 6 6 2 1 4 3 3 0 5 5 7 12 11 7 6 6 7 6 6 7 6 6 5 4 3 4 5 5 5 6 6 6 7 7 7 6 7 6 6 6 5 5 6 7 7 6 6 6 6 5 5 4 4 4 3 3 4 4 4 4 4 4 4 5 5 5 5 6 6 6 6 6 6 7 7 8 8 8 7 7 8 7 7 7 7 8 9 8 7 8 9
9 3 9 6 4 3 5 6 6 4 1 3 5 2 3 3 2 5 7 6 9 6 5 5 4 4 5 5 5 6 6 5 5 5 6 6 6 6 6 6 6 6 6 5 5 5 5 6 6 7 7 5 5 5 4 4 4 4 3 3 3 3 3 3 3 3 3 4 4 5 5 5 5 6 6 5 5 6 7 7 7 7 8 8 8 8 7 8 8 7 6 6 6 6 7 8 8
2 2 4 3 5 2 2 2 1 3 2 3 2 5 2 3 6 5 4 2 6 5 5 4 6 5 6 7 7 6 6 6 5 6 6 5 5 5 5 5 5 5 6 5 6 5 5 6 7 7 7 6 5 5 4 3 3 3 3 3 3 3 3 2 2 2 2 2 3 4 5 5 5 6 5 6 6 6 7 7 7 8 8 8 8 8 8 8 8 8 7 6 7 4 6 7 8
7 3 5 2 5 6 4 2 3 1 2 4 4 4 5 6 7 9 8 6 6 5 5 5 7 8 8 8 7 7 6 6 5 5 5 5 5 5 5 5 5 5 6 6 6 6 6 6 6 7 7 6 6 5 5 4 4 3 4 3 2 1 1 1 1 1 1 2 2 3 3 4 5 5 5 5 5 6 6 6 7 8 8 7 7 8 8 7 6 7 7 8 8 7 7 8 7
5 4 7 3 0 3 1 3 2 2 4 2 3 5 5 4 3 5 9 10 8 7 7 8 8 9 9 8 7 7 7 5 6 6 5 5 5 6 5 5 6 6 6 6 6 5 5 6 6 7 6 7 6 6 6 5 5 4 4 4 4 3 2 2 1 2 1 2 2 2 3 3 3 3 4 4 4 5 6 6 6 7 7 8 8 8 8 8 7 6 8 8 7 6 7 6 6
2 1 1 6 3 5 2 2 2 4 5 3 5 8 6 6 5 5 10 13 12 10 9 10 11 11 10 10 9 7 7 6 6 6 5 4 4 5 5 6 5 6 6 6 5 5 5 6 6 6 7 6 6 5 5 5 5 4 3 4 3 3 3 2 2 1 1 1 1 2 3 3 4 4 4 4 4 5 5 5 5 6 6 7 7 6 7 8 7 7 7 7 7 7 7 8 7
3 1 2 4 2 3 4 5 2 2 5 3 2 4 3 6 8 7 10 14 14 13 11 11 13 13 11 10 8 7 7 6 6 6 5 5 5 5 5 5 5 5 5 5 5 5 6 5 5 6 6 5 5 5 5 5 4 4 3 3 3 2 2 2 1 2 1 1 2 2 3 3 4 4 4 4 4 4 5 5 5 6 7 7 7 7 6 6 6 6 6 6 6 6 7 8 8
4 5 6 2 1 2 3 2 4 3 4 5 5 3 4 5 9 10 9 14 14 14 12 11 13 13 12 10 9 9 8 7 6 6 6 6 5 5 5 5 5 5 4 4 4 5 4 5 5 5 6 6 6 5 5 5 4 4 5 5 4 3 3 2 2 2 2 3 3 3 3 3 4 4 3 4 4 5 5 5 5 6 6 7 7 7 5 5 5 6 7 7 7 7 8 8 7
6 8 8 10 8 4 5 5 2 0 3 3 3 5 0 3 4 2 3 3 8 9 12 11 13 14 12 10 10 9 8 7 7 6 6 6 6 6 5 4 4 4 5 5 4 5 5 5 5 5 5 5 5 5 5 5 5 5 6 5 5 4 4 3 4 4 5 4 4 4 4 4 4 4 3 4 4 4 4 5 5 5 6 6 7 7 7 6 6 7 7 6 6 7 7 8 7
Wind_Direction
269 216 219 224 240 250 275 214 243 167 225 214 108 203 109 103 100 148 117 141 153 72 68 125 89 155 337 4 358 15 31 359 23 323 78 101 158 109 117 129 127 127 117 117 122 127 122 84 88 94 98 93 88 87 84 81 99 95 93 102 93 95 98 92 88 78 76 79 85 84 80 79 82 85 84 81 78 78 82 78 78 77 76 77 78 81 82 79 78 77 78 76 77 78 78 79 79
251 230 221 223 222 252 212 167 269 144 240 167 118 120 116 110 190 157 139 149 63 117 107 115 146 94 17 334 329 258 65 46 24 77 81 126 133 114 124 133 139 131 119 119 126 125 117 106 92 102 96 95 99 92 92 92 89 102 101 99 96 78 85 89 89 94 88 82 80 80 80 78 80 84 85 84 82 78 78 85 86 84 82 78 76 76 78 78 76 77 78 80 79 79 80 80 79
274 226 203 222 218 239 321 221 243 198 206 185 128 108 122 147 169 156 114 85 95 114 107 106 80 181 229 234 207 357 84 71 76 93 106 132 130 127 138 135 134 127 123 124 125 129 125 103 97 104 101 101 97 94 80 76 80 89 94 95 101 99 90 85 92 91 90 89 85 80 77 78 82 85 84 83 82 83 78 87 85 81 82 87 89 87 82 79 77 78 78 80 80 80 81 81 80
281 277 264 218 219 220 228 199 264 215 229 73 130 122 161 154 143 91 82 89 102 131 141 141 196 62 302 354 30 221 96 98 62 113 117 163 121 135 138 135 131 128 125 133 130 129 118 103 93 101 102 99 97 88 78 67 70 89 88 83 86 84 81 78 76 83 84 84 82 82 81 85 90 88 93 89 87 78 81 91 93 90 83 76 75 79 80 78 78 78 79 81 84 83 81 82 82
260 228 268 258 280 205 238 236 267 249 225 166 107 131 146 163 117 108 95 98 109 145 187 158 189 120 347 335 330 339 72 86 101 96 124 103 112 132 142 139 140 130 135 138 129 123 110 85 95 109 106 102 102 100 92 79 77 83 91 101 95 86 90 89 89 84 83 83 78 74 75 74 80 104 95 93 88 85 78 72 81 87 87 91 93 88 85 81 75 76 80 81 80 82 82 84 86
246 227 189 264 257 356 268 202 210 233 34 341 118 126 143 136 128 121 118 112 98 101 6 184 326 134 181 91 16 34 35 150 113 118 124 117 130 137 138 147 139 138 136 136 127 122 119 96 101 116 109 99 99 105 97 91 81 87 90 81 103 104 94 92 93 88 83 84 86 82 77 82 94 93 98 97 97 83 80 85 86 91 95 94 90 87 83 81 82 83 84 86 86 84 82 82 84
230 202 184 200 212 234 239 225 194 218 69 352 50 123 140 129 126 133 131 122 114 112 208 205 189 179 204 117 129 60 66 86 142 121 111 126 132 139 141 150 146 139 140 136 128 120 115 102 121 113 108 102 101 103 111 95 83 93 98 89 79 98 99 96 90 87 83 80 83 83 79 94 100 99 100 95 87 87 82 87 93 90 82 82 81 87 89 86 84 83 84 84 85 85 84 84 82
300 262 160 215 170 216 227 259 290 221 77 41 49 96 136 127 142 155 151 180 155 184 175 124 208 281 67 229 140 93 102 29 46 109 114 135 139 138 157 145 147 141 139 133 121 113 108 101 115 116 114 113 116 112 111 108 99 95 104 102 98 101 94 91 89 89 88 84 90 93 94 90 98 105 105 99 91 88 91 93 96 85 86 88 88 86 84 87 86 83 86 88 88 85 86 86 84
210 257 73 265 212 203 250 217 160 66 103 120 112 50 19 142 161 155 162 109 130 152 163 170 168 241 102 149 78 117 98 95 128 114 129 134 142 150 162 149 143 144 138 136 123 124 124 106 122 120 114 118 120 120 117 113 109 107 104 107 99 108 100 100 94 79 84 87 95 100 97 94 86 92 101 99 93 87 85 85 85 96 97 96 91 83 87 88 85 88 88 88 90 91 91 91 86
195 240 186 234 228 202 227 187 220 115 102 94 97 147 151 153 165 179 144 154 150 154 129 128 187 272 65 137 127 161 118 122 134 131 134 140 142 153 165 151 133 146 142 137 133 133 129 126 116 116 119 115 122 122 123 118 122 119 116 108 105 81 109 105 103 102 102 93 103 105 105 95 92 92 97 103 101 99 95 90 80 79 84 83 83 87 86 84 86 90 94 90 89 92 92 91 88
208 192 301 229 203 220 201 176 171 142 131 137 121 127 153 164 175 169 161 116 143 153 135 158 191 223 232 100 62 82 109 129 153 140 140 146 150 161 159 162 141 152 144 146 136 134 135 142 121 123 119 117 116 127 128 132 130 124 116 107 100 92 82 103 104 104 98 99 102 101 103 98 97 88 76 99 105 93 89 79 72 85 88 91 92 89 85 85 88 90 92 94 92 93 93 88 86
221 208 178 221 214 223 193 170 150 109 119 149 132 145 159 164 199 169 147 149 159 152 165 190 52 145 191 152 115 120 117 136 151 139 140 145 163 169 150 165 150 145 148 148 146 142 142 139 147 123 118 121 119 117 128 130 131 126 120 107 107 104 91 79 117 111 109 107 108 113 105 102 96 90 76 89 108 110 98 92 92 87 92 90 95 96 93 93 92 90 91 96 99 94 96 93 89
262 187 201 224 222 228 46 284 134 116 147 181 141 139 152 166 188 166 165 144 164 169 162 180 49 246 177 145 98 126 131 148 143 143 144 158 160 166 153 158 161 146 152 161 157 146 145 150 143 150 125 119 119 118 119 111 111 102 119 111 84 80 89 75 74 106 106 112 114 113 103 92 84 83 72 63 111 105 100 86 72 82 78 91 92 92 91 88 87 92 92 93 99 103 98 102 99
256 231 231 217 39 275 210 126 120 180 178 118 105 136 160 175 195 203 158 157 173 178 69 93 207 199 83 122 150 151 140 162 136 143 149 164 163 159 172 156 157 154 164 168 168 155 157 159 149 146 144 153 141 127 112 113 107 102 97 98 89 77 82 72 67 88 96 91 100 100 100 94 84 67 63 60 63 86 88 88 67 71 95 94 90 88 88 86 86 88 98 99 102 103 100 103 105
259 300 251 338 172 219 148 213 181 202 129 131 126 147 163 78 333 252 181 190 107 73 113 35 15 232 91 227 147 166 143 158 143 148 150 161 167 166 168 148 159 165 168 183 170 170 166 162 158 151 160 160 151 160 152 125 112 104 106 101 91 84 79 69 69 86 101 104 107 105 98 93 80 81 76 68 66 81 88 83 70 53 85 90 92 87 86 89 90 88 91 102 105 100 101 100 98
269 246 242 207 205 217 158 224 132 230 127 134 144 144 160 139 254 211 72 0 101 97 186 148 203 354 7 47 33 121 135 143 144 153 154 166 172 164 168 173 171 172 173 188 175 184 173 169 163 160 161 167 161 159 148 149 126 120 107 95 86 90 88 84 81 83 94 108 113 118 116 122 129 110 106 90 85 79 71 76 75 84 88 97 94 94 93 94 95 99 102 105 107 108 105 91 71
266 268 206 212 209 207 142 202 162 208 112 115 142 160 168 159 169 359 346 289 171 154 179 104 148 173 40 63 72 112 129 133 147 156 161 165 172 170 177 176 174 176 185 187 188 185 187 178 173 168 169 161 164 161 152 150 129 132 119 95 93 97 102 101 103 108 109 119 131 136 160 161 138 133 158 116 118 93 86 76 75 76 82 82 91 96 99 99 103 108 110 102 96 89 86 81 65
239 218 212 200 200 199 149 194 170 82 139 137 162 177 175 149 170 143 181 183 125 146 167 123 100 121 71 104 123 122 132 144 155 161 168 169 177 176 180 179 181 183 182 188 193 188 188 190 178 182 172 165 173 160 164 157 145 188 164 158 157 132 125 135 152 150 154 143 148 168 186 139 149 157 110 136 122 126 99 86 78 75 71 81 97 104 106 107 112 112 110 109 106 127 144 146 127
215 211 214 206 208 79 105 106 77 215 144 150 161 183 210 166 161 160 197 176 170 162 176 163 167 148 120 122 142 142 149 154 161 171 173 176 183 183 183 182 186 185 185 184 192 193 189 184 190 188 180 175 172 168 165 172 161 185 169 167 159 175 158 183 187 170 181 166 179 191 186 151 147 137 105 58 83 70 91 90 85 78 80 83 78 79 90 127 117 108 97 94 116 182 205 207 140
231 261 192 196 86 93 74 86 92 38 108 144 154 170 223 122 162 143 228 166 183 191 168 181 193 169 161 140 153 151 165 163 170 176 178 183 185 186 191 186 187 189 186 188 184 195 190 191 194 186 185 179 177 180 178 180 176 187 182 173 173 181 173 195 202 188 190 181 191 207 189 124 163 116 92 109 112 134 104 92 93 93 94 102 117 104 87 81 91 88 87 112 176 210 228 163 160
140 229 219 117 140 136 99 76 80 70 353 149 155 146 178 159 143 176 192 167 198 207 183 180 195 181 160 153 158 160 171 170 178 185 186 187 189 189 192 191 188 186 184 181 184 191 195 196 185 191 184 184 187 185 188 189 184 189 194 182 188 183 179 193 197 194 192 188 195 212 136 137 192 135 159 161 190 153 155 155 157 178 165 160 204 166 159 145 208 157 139 204 210 206 220 215 176
185 200 42 34 99 124 92 85 68 57 347 141 139 160 179 126 166 199 204 218 147 174 133 106 64 176 151 155 161 168 174 178 184 191 193 190 191 190 191 187 190 188 176 187 188 189 196 205 189 191 189 188 190 193 194 189 183 206 191 192 201 197 187 195 199 191 188 192 195 206 156 167 194 159 167 176 201 152 167 171 183 179 160 149 198 188 191 170 216 162 177 203 217 191 213 209 236
198 122 116 45 12 81 85 110 69 6 135 147 165 154 116 173 177 199 236 246 77 56 63 56 73 86 151 150 155 170 178 183 189 195 196 196 194 196 194 190 184 189 181 194 189 193 193 200 198 192 193 191 195 199 198 189 200 208 203 196 203 205 193 204 206 201 193 184 198 191 190 181 193 183 173 187 192 178 185 180 181 167 163 173 194 206 187 192 219 199 205 216 232 247 237 259 264
268 149 130 69 24 72 56 76 106 72 163 149 95 107 181 177 192 144 233 238 96 85 68 69 91 109 143 154 166 173 183 187 193 196 200 201 197 197 196 194 186 184 190 193 192 194 191 197 199 196 197 196 195 202 204 199 202 207 215 205 214 215 214 201 211 210 193 186 197 195 206 191 194 196 184 188 193 197 187 188 182 168 179 179 190 204 179 206 208 218 220 221 233 235 235 237 240
215 118 131 101 77 75 79 97 120 118 63 58 126 174 143 194 348 131 223 232 137 111 98 103 112 147 163 166 174 179 186 191 195 197 201 209 205 203 204 205 195 187 196 197 199 200 189 197 199 200 200 199 201 201 207 204 203 207 206 208 210 223 215 220 211 204 215 209 196 211 205 208 199 201 192 195 193 198 186 185 188 189 184 186 188 202 191 205 212 216 215 220 221 227 224 218 239
214 124 122 121 102 98 103 114 125 127 117 152 167 173 101 53 346 264 232 138 91 110 142 138 147 155 177 181 181 183 188 192 194 194 198 200 205 204 206 208 209 206 198 203 204 204 193 192 200 202 203 198 201 206 208 208 206 208 210 208 209 220 219 224 221 221 216 217 209 206 208 223 212 206 195 201 196 193 196 180 197 200 189 193 191 208 200 210 214 214 221 222 223 227 232 230 226
120 128 120 114 111 114 115 125 125 121 126 164 188 165 146 89 264 210 143 96 72 161 171 160 200 199 185 189 190 193 193 193 193 192 193 198 202 205 204 206 212 212 199 202 204 205 201 194 197 206 206 200 199 208 212 213 209 210 210 212 210 211 223 230 224 223 228 222 221 203 216 221 229 220 207 202 199 195 198 190 200 197 198 194 196 208 200 217 220 224 216 223 223 227 229 230 222
127 121 109 102 109 101 111 110 125 160 125 224 272 143 104 137 175 285 123 73 120 215 192 178 200 214 201 197 192 194 199 196 192 190 194 194 199 200 202 203 207 210 206 202 201 200 202 201 202 204 206 201 202 210 210 216 215 212 209 213 214 214 211 231 229 223 227 232 223 214 218 218 225 225 220 207 211 198 200 201 200 201 205 196 200 206 198 209 227 228 224 231 242 237 239 233 226
142 138 128 128 138 120 148 130 133 263 114 224 330 170 203 185 232 182 120 116 140 190 192 190 197 206 195 194 191 191 198 188 188 196 200 199 199 198 201 199 199 202 208 205 199 196 201 200 202 204 206 203 204 211 211 214 220 218 211 213 219 211 212 219 230 223 229 232 231 226 222 224 221 224 212 214 212 213 208 203 206 205 207 203 200 198 195 206 221 224 215 219 232 238 244 242 231
160 187 139 151 166 163 140 122 141 199 97 198 240 235 226 204 193 119 130 161 155 197 209 189 194 194 199 194 198 198 193 190 195 201 201 201 200 198 201 197 197 197 196 200 198 198 199 200 199 207 207 207 203 210 214 213 217 222 218 215 217 217 216 215 232 234 227 236 229 222 225 227 224 225 222 210 212 217 215 209 210 207 211 205 200 186 194 204 216 217 220 213 223 229 229 230 231
180 130 163 184 175 180 142 162 145 171 131 180 238 249 289 118 135 119 132 168 190 209 212 201 196 188 188 193 201 203 198 203 204 202 203 202 200 200 199 197 193 193 189 193 196 196 197 198 193 205 202 212 204 212 213 217 217 218 217 216 216 213 215 218 214 231 229 226 233 215 221 231 230 229 227 220 214 220 216 213 209 212 209 204 199 196 202 206 211 217 215 219 220 219 232 229 227
169 162 195 198 205 124 133 128 176 200 151 208 205 250 259 128 129 112 136 185 202 223 210 195 200 198 191 195 203 208 209 205 213 210 204 203 202 201 198 199 192 190 192 191 191 191 196 195 194 204 198 210 212 214 216 217 221 221 221 219 222 213 215 215 216 217 222 226 224 236 224 230 235 232 232 228 225 218 220 218 213 213 208 201 205 204 207 213 207 212 215 217 224 223 226 231 227
186 196 172 187 200 151 152 164 135 14 139 187 213 259 231 136 120 144 152 161 179 209 224 216 210 203 202 204 206 208 211 207 207 213 210 203 202 202 196 198 193 191 191 188 187 189 194 194 193 202 202 202 211 211 214 220 222 222 222 222 223 224 222 218 217 217 215 221 222 214 219 224 230 237 235 230 228 228 226 227 221 207 201 202 205 213 213 217 212 208 217 214 224 233 225 235 234
192 206 204 186 192 170 194 104 199 153 216 189 212 237 247 88 136 154 164 171 159 191 216 227 219 215 210 209 208 208 210 210 210 209 210 204 200 200 198 196 197 193 197 196 190 188 194 195 196 202 205 205 205 213 213 215 224 226 228 228 223 225 225 224 221 218 218 214 214 208 207 210 220 233 233 232 231 228 227 225 227 214 202 207 215 213 216 216 218 213 217 213 213 224 235 232 232
175 178 184 148 201 208 202 175 153 186 202 235 197 228 243 246 163 164 175 177 186 202 218 229 218 209 211 212 215 216 215 213 218 212 204 197 197 195 197 192 197 197 197 199 198 194 195 198 198 198 205 207 206 209 213 217 219 224 228 229 227 227 228 227 228 228 222 220 222 225 233 232 228 231 225 223 233 232 226 224 225 220 213 214 216 219 221 218 218 219 222 221 216 223 233 239 243
172 177 190 178 184 189 203 93 122 197 185 212 223 227 236 236 241 219 181 182 206 232 233 235 237 236 234 227 222 218 217 220 218 151 114 146 177 186 190 191 194 199 200 200 201 200 201 202 202 200 201 205 205 207 205 212 213 217 220 223 230 230 230 229 222 223 225 219 211 215 224 234 236 222 215 212 218 225 226 225 225 220 210 211 214 219 222 217 212 212 219 226 227 222 230 239 243
174 186 195 197 183 169 88 89 87 272 218 220 224 240 252 256 247 242 232 181 210 227 233 232 234 235 234 233 230 228 222 228 107 116 146 158 159 165 176 184 194 197 204 203 201 202 202 202 199 206 200 199 200 202 205 204 211 212 218 221 226 226 228 229 229 225 223 224 217 215 212 215 226 224 223 220 213 221 228 229 220 213 211 218 223 224 220 222 212 206 216 221 230 232 225 220 219
182 182 193 185 185 177 87 113 114 104 242 220 219 248 256 258 257 254 247 235 233 234 236 232 232 231 230 232 235 225 228 147 131 172 175 165 175 172 169 184 190 195 202 202 203 203 203 203 205 206 200 198 203 204 202 205 208 209 209 217 224 228 223 221 230 229 224 220 214 214 214 216 208 212 219 219 214 223 238 236 226 223 211 209 221 243 240 213 200 222 224 232 220 228 237 201 173
174 185 189 191 166 95 119 89 89 127 189 240 146 245 255 251 252 248 240 233 234 236 236 238 238 230 228 224 224 218 205 216 205 204 165 170 168 173 174 181 191 204 199 202 204 202 202 204 208 206 204 202 202 204 204 204 205 209 213 217 219 227 233 237 233 231 222 226 223 222 224 227 226 229 229 216 223 216 212 216 225 216 211 203 215 227 229 229 224 218 214 224 227 215 233 194 183
177 185 187 205 145 174 183 146 146 138 251 336 19 288 268 264 257 252 242 234 225 104 91 230 237 243 234 232 232 223 229 231 232 219 196 182 172 178 183 184 189 189 196 198 198 200 199 204 205 203 204 204 202 201 206 207 205 209 214 230 224 231 235 227 236 236 228 222 230 234 238 235 228 228 221 217 217 226 231 232 228 222 221 212 218 227 225 220 216 217 208 213 221 231 200 227 204
203 204 193 189 148 167 351 140 138 113 222 319 299 282 267 246 245 240 204 82 182 232 224 232 225 224 245 281 281 249 252 249 244 236 225 193 188 199 194 190 180 184 195 199 195 196 200 201 199 198 199 201 204 197 197 203 203 211 219 218 234 239 239 252 240 235 238 240 239 228 232 227 232 240 251 237 219 215 213 217 219 221 221 216 212 220 220 216 212 212 209 210 209 217 233 223 210
167 257 268 191 166 120 108 121 136 182 215 185 228 265 260 226 220 230 157 164 192 183 207 222 205 188 189 218 222 197 211 227 236 232 223 206 215 195 185 180 182 198 198 197 200 200 198 193 192 189 193 194 197 197 188 191 198 206 204 213 213 219 230 222 227 233 231 231 238 251 257 252 238 231 222 213 217 219 234 233 235 233 240 237 221 230 238 238 221 216 206 201 223 224 231 237 241
176 175 114 123 158 133 131 149 168 190 233 138 229 226 260 118 212 205 183 199 194 155 208 202 191 201 194 203 194 202 207 204 206 228 222 222 213 208 201 189 191 197 193 161 176 198 199 191 185 183 182 183 184 189 186 184 191 204 216 215 216 221 228 235 244 248 251 252 249 240 239 239 248 253 249 246 236 213 216 223 223 225 221 219 218 224 235 235 238 231 227 219 222 217 221 244 242
191 8 167 126 141 142 156 162 201 60 72 85 244 249 267 276 204 143 144 185 204 202 195 196 185 192 196 189 175 184 209 197 206 197 188 195 178 193 180 153 168 166 127 142 169 182 188 186 173 172 172 172 163 173 176 181 187 197 211 218 220 225 225 236 233 237 240 249 255 255 257 255 249 247 254 257 252 244 229 235 235 228 222 226 226 227 220 218 220 221 211 210 214 214 209 221 235
69 342 281 154 164 159 160 180 174 58 224 202 176 192 243 242 220 126 155 208 211 214 203 188 179 168 163 170 110 131 159 146 208 173 144 147 146 142 118 121 99 109 125 150 152 155 162 167 165 162 162 161 150 167 173 178 188 193 204 211 218 225 238 243 248 252 259 257 257 262 268 271 272 275 271 269 271 272 244 224 237 239 239 240 230 228 226 226 226 224 217 219 219 221 217 223 226
173 191 87 81 87 121 164 175 171 174 206 239 168 187 237 262 207 192 176 245 223 206 189 179 166 148 144 129 102 115 115 120 130 97 107 102 98 94 91 105 105 92 107 120 120 122 125 136 147 150 144 149 147 156 170 172 181 195 203 210 217 218 222 240 253 263 297 323 293 281 275 275 271 272 273 269 269 269 274 269 249 250 254 255 253 244 243 238 238 241 234 226 222 225 220 223 232
141 165 113 106 110 120 101 106 177 180 233 219 72 295 301 289 216 211 191 193 250 173 155 147 143 145 129 97 119 120 111 114 111 106 86 90 88 104 115 99 100 101 100 106 105 111 120 122 135 126 107 98 117 138 156 166 176 190 205 209 214 227 236 246 255 250 255 275 275 271 274 269 272 270 270 276 276 276 274 273 276 273 259 251 243 236 235 235 231 226 230 226 224 224 226 223 225
151 148 138 121 104 141 163 167 212 222 232 81 337 93 279 222 232 205 52 58 24 140 171 165 160 148 129 129 112 94 100 103 112 108 105 109 110 108 106 101 99 99 98 93 96 100 99 102 106 106 106 111 118 128 149 157 169 186 198 206 210 219 228 236 245 255 258 260 258 263 262 265 268 272 272 268 265 272 281 279 280 281 277 276 267 255 237 227 233 232 231 231 232 229 224 228 230
190 152 157 161 159 163 188 177 200 216 236 102 82 244 228 238 247 60 117 124 122 91 147 157 149 133 132 114 97 99 94 110 113 112 118 112 106 105 100 96 91 82 81 86 91 99 111 123 128 121 122 129 131 143 155 161 168 185 193 203 213 224 239 241 248 257 271 268 272 271 271 273 275 271 269 276 280 282 280 277 274 269 271 270 274 282 285 276 262 231 228 235 239 239 230 223 226
183 176 175 185 174 184 204 192 216 217 73 241 115 59 258 313 260 250 239 171 141 109 78 63 103 124 121 114 112 111 103 106 103 103 97 98 96 95 93 92 89 87 85 82 83 87 92 101 106 106 111 121 126 133 143 151 162 169 181 194 206 215 225 244 251 267 265 274 274 275 276 281 283 283 285 279 278 279 275 274 274 276 279 289 292 289 283 286 293 285 266 246 237 233 230 230 231
194 186 192 199 188 178 192 188 192 206 141 114 239 193 232 178 154 47 26 90 112 88 86 88 78 91 89 98 111 114 118 103 104 98 93 89 83 84 85 85 85 84 88 84 84 90 93 94 103 104 100 100 114 123 135 148 150 161 168 179 192 196 207 214 227 228 247 261 272 275 278 281 282 285 284 290 296 290 284 279 281 283 281 280 282 279 274 273 262 257 253 257 260 247 232 227 233
170 330 15 252 216 1 227 33 325 122 150 145 170 230 295 264 114 110 108 86 108 107 114 129 131 131 125 133 132 131 125 116 103 100 91 75 74 79 81 80 77 77 74 71 69 67 79 81 84 86 92 95 99 108 111 118 119 128 137 164 175 184 190 200 214 211 227 245 266 284 285 281 281 286 293 298 295 295 298 296 289 281 279 278 276 279 284 284 286 286 284 277 266 233 236 232 234
180 175 207 168 20 107 110 130 87 347 328 248 143 245 245 258 241 173 152 145 154 147 143 159 153 147 154 145 142 139 132 126 115 111 101 96 80 62 61 64 71 70 64 63 56 52 58 68 75 79 79 78 73 71 82 80 92 100 102 95 86 110 134 222 269 317 283 262 261 264 267 280 294 295 293 305 303 303 301 300 296 294 292 286 281 277 274 273 278 281 279 281 282 288 281 272 265
105 209 178 119 61 8 192 226 123 233 233 230 136 213 241 160 233 118 145 172 172 176 167 170 155 158 161 153 151 143 142 124 111 99 91 86 81 81 73 66 62 67 73 70 64 53 52 54 61 71 65 62 52 53 52 49 51 57 58 55 51 46 34 28 12 347 324 318 304 289 281 278 287 297 298 293 293 292 293 296 291 290 290 290 288 287 283 281 278 272 272 273 275 278 273 271 266
312 138 51 187 183 211 187 236 200 203 222 244 195 218 251 227 206 142 176 180 182 181 173 162 160 170 164 160 152 140 122 123 126 120 111 95 88 80 82 84 80 77 74 75 71 69 70 65 64 69 71 63 58 49 53 50 45 46 42 44 49 49 44 36 25 350 319 294 306 312 315 315 307 303 298 300 299 300 298 297 292 289 291 293 297 300 301 293 297 293 290 287 283 281 276 272 269
51 202 180 33 337 241 176 201 289 222 240 218 221 149 241 193 230 177 183 188 184 179 168 173 168 175 166 162 153 143 150 149 139 131 116 110 97 91 89 96 94 89 86 82 82 80 76 73 77 82 81 80 74 68 65 65 52 53 49 67 60 63 65 59 38 30 29 32 13 349 342 328 329 325 316 316 308 307 305 302 300 298 296 296 291 288 285 284 290 286 286 282 285 288 284 279 279
159 181 175 192 205 11 343 231 218 220 235 230 246 229 235 203 197 209 190 191 187 174 169 168 170 173 166 160 151 158 159 152 144 136 129 122 118 110 101 97 93 89 88 86 87 81 82 81 80 78 85 81 74 68 68 63 62 55 54 48 45 44 55 62 73 61 52 45 34 14 11 350 326 315 324 317 316 316 311 308 306 303 302 298 296 295 295 292 285 282 283 284 286 283 280 279 279
196 187 192 190 163 165 181 214 84 34 220 240 215 239 65 84 2 195 83 149 181 164 160 165 167 167 161 154 160 164 156 148 140 134 128 125 119 115 110 98 100 101 92 90 85 85 78 76 78 82 81 71 77 69 65 72 67 62 54 46 37 30 28 42 61 56 44 39 30 22 7 344 334 333 338 324 323 323 314 313 308 305 303 300 299 303 303 300 295 294 290 287 289 286 282 280 280